EW2493 Weather Reports


Display with metric or nautical units.
time (UTC)temp
F
wind
direction
speed
MPH
gust
MPH
rain 1hr
in
rain 24hr
in
rain mn
in
humidity
%
barometer
mb
20260510161511 52 50 4.0 12.0 0.00 0.00 0.00 48 1016.6
20260510160008 51 13 5.0 12.0 0.00 0.00 0.00 51 1016.4
20260510154506 50 59 4.0 10.0 0.00 0.00 0.00 51 1016.4
20260510153003 49 58 7.0 11.0 0.00 0.00 0.00 53 1016.4
20260510151501 49 65 6.0 12.0 0.00 0.00 0.00 54 1016.3
20260510144614 48 62 7.0 11.0 0.00 0.00 0.00 58 1016.3
20260510143104 47 47 6.0 11.0 0.00 0.00 0.00 61 1016.3
20260510141555 45 21 6.0 11.0 0.00 0.00 0.00 64 1016.3
20260510140047 44 12 7.0 12.0 0.00 0.00 0.00 65 1016.2
20260510134542 43 31 6.0 12.0 0.00 0.00 0.00 64 1016.1
20260510133037 43 18 8.0 13.0 0.00 0.00 0.00 66 1015.9
20260510131534 42 29 6.0 12.0 0.00 0.00 0.00 68 1015.7
20260510130029 41 24 6.0 10.0 0.00 0.00 0.00 70 1015.5
20260510124532 40 347 6.0 11.0 0.00 0.00 0.00 72 1015.3
20260510123022 38 356 4.0 8.0 0.00 0.00 0.00 76 1015.0
20260510121519 36 2 3.0 6.0 0.00 0.00 0.00 79 1014.8
20260510120015 35 360 4.0 7.0 0.00 0.00 0.00 79 1014.6
20260510114514 34 351 3.0 5.0 0.00 0.00 0.00 80 1014.4
20260510113012 33 339 4.0 7.0 0.00 0.00 0.00 81 1014.2
20260510111509 34 346 3.0 5.0 0.00 0.00 0.00 80 1013.9
20260510110006 34 334 3.0 6.0 0.00 0.00 0.00 80 1013.5
20260510104502 34 335 3.0 5.0 0.00 0.00 0.00 81 1013.2
20260510103104 34 332 3.0 6.0 0.00 0.00 0.00 81 1012.9
20260510101559 33 336 2.0 4.0 0.00 0.00 0.00 81 1012.7
20260510100115 33 326 2.0 3.0 0.00 0.00 0.00 81 1012.7
20260510094603 32 316 2.0 5.0 0.00 0.00 0.00 81 1012.4
20260510093059 33 303 0.0 3.0 0.00 0.00 0.00 77 1012.2
20260510091551 35 313 1.0 4.0 0.00 0.00 0.00 76 1011.9
20260510090056 34 19 1.0 6.0 0.00 0.00 0.00 77 1011.8
20260510084607 34 271 2.0 4.0 0.00 0.01 0.00 79 1011.1
20260510083045 32 270 0.0 2.0 0.00 0.01 0.00 81 1011.1
20260510081551 32 268 1.0 3.0 0.00 0.01 0.00 82 1011.0
20260510080044 32 294 2.0 4.0 0.00 0.01 0.00 80 1010.9
20260510074538 32 265 0.0 2.0 0.00 0.05 0.00 82 1010.6
20260510073037 32 244 0.0 1.0 0.00 0.05 0.00 81 1010.6
20260510071543 33 258 0.0 2.0 0.00 0.05 0.00 81 1010.7
20260510070039 33 282 1.0 2.0 0.00 0.05 0.00 79 1010.7
20260510064531 33 277 1.0 2.0 0.00 0.05 0.00 77 1010.5
20260510063029 33 258 0.0 1.0 0.00 0.05 0.00 78 1010.4
20260510061529 33 247 0.0 1.0 0.00 0.05 0.00 78 1010.4
20260510060026 34 245 0.0 2.0 0.00 0.05 0.00 77 1010.4
20260510054523 35 254 0.0 2.0 0.00 0.05 0.00 76 1010.2
20260510053024 35 238 0.0 1.0 0.00 0.05 0.00 74 1010.2
20260510051515 37 263 0.0 3.0 0.00 0.05 0.00 72 1010.0
20260510050011 37 265 1.0 3.0 0.00 0.05 0.00 72 1009.9
20260510044516 38 247 1.0 3.0 0.00 0.05 0.05 71 1010.0
20260510043008 38 258 1.0 3.0 0.00 0.05 0.05 69 1009.9
20260510041504 39 260 1.0 4.0 0.00 0.05 0.05 68 1009.8
20260510040001 40 265 1.0 3.0 0.00 0.05 0.05 67 1009.8
20260510034602 41 262 1.0 2.0 0.00 0.05 0.05 64 1009.6
20260510033159 43 272 0.0 1.0 0.00 0.05 0.05 59 1009.5
20260510031622 45 274 0.0 2.0 0.00 0.05 0.05 55 1009.4
20260510024555 48 337 0.0 0.0 0.00 0.05 0.05 49 1009.1
20260510023053 49 337 0.0 0.0 0.00 0.05 0.05 48 1008.8
20260510021551 50 337 0.0 1.0 0.00 0.05 0.05 46 1008.7
20260510020050 51 336 0.0 2.0 0.00 0.05 0.05 45 1008.4
20260510014549 53 332 1.0 3.0 0.00 0.05 0.05 41 1008.2
20260510013046 56 331 2.0 3.0 0.00 0.05 0.05 37 1008.1
20260510011545 58 333 3.0 7.0 0.00 0.05 0.05 36 1007.9
20260510010042 58 321 6.0 9.0 0.00 0.05 0.05 34 1007.8
20260510004542 59 341 8.0 13.0 0.00 0.05 0.05 34 1007.8
20260510003040 59 307 6.0 12.0 0.00 0.05 0.05 34 1007.6
20260510001542 59 316 10.0 16.0 0.00 0.05 0.05 33 1007.6
20260510000058 59 322 10.0 13.0 0.00 0.05 0.05 32 1007.6
20260509234637 60 332 8.0 15.0 0.00 0.05 0.05 33 1007.5
20260509233036 60 329 12.0 19.0 0.00 0.05 0.05 32 1007.4
20260509231534 59 319 8.0 19.0 0.00 0.05 0.05 32 1007.4
20260509230036 59 312 9.0 20.0 0.00 0.05 0.05 31 1007.2
20260509224533 59 327 14.0 21.0 0.00 0.05 0.05 30 1007.3
20260509223033 59 322 15.0 21.0 0.00 0.05 0.05 32 1007.2
20260509221531 59 314 10.0 19.0 0.00 0.05 0.05 32 1007.2
20260509220030 59 288 8.0 17.0 0.00 0.05 0.05 33 1007.2
20260509214532 59 313 13.0 19.0 0.00 0.05 0.05 33 1007.2
20260509213029 59 302 9.0 19.0 0.00 0.05 0.05 33 1007.3
20260509211527 59 322 10.0 21.0 0.00 0.05 0.05 33 1007.3
20260509210037 59 335 13.0 20.0 0.00 0.05 0.05 34 1007.3
20260509204533 58 334 15.0 21.0 0.00 0.05 0.05 33 1007.3
20260509203024 58 312 7.0 19.0 0.00 0.05 0.05 33 1007.3
20260509201622 58 305 13.0 21.0 0.00 0.05 0.05 34 1007.3
20260509200021 58 329 5.0 17.0 0.00 0.05 0.05 34 1007.2
20260509194521 57 327 14.0 22.0 0.00 0.05 0.05 33 1007.3
20260509193017 57 340 10.0 22.0 0.00 0.05 0.05 36 1007.1
20260509191519 57 346 14.0 22.0 0.00 0.05 0.05 37 1007.2
20260509190014 56 334 9.0 19.0 0.00 0.05 0.05 38 1007.1
20260509184517 56 336 9.0 17.0 0.00 0.05 0.05 38 1007.0
20260509183013 56 294 10.0 19.0 0.00 0.05 0.05 39 1007.1
20260509181511 55 300 13.0 20.0 0.00 0.05 0.05 40 1007.2
20260509180013 55 327 8.0 18.0 0.00 0.05 0.05 41 1007.2
20260509174509 54 316 16.0 22.0 0.00 0.05 0.05 42 1007.0
20260509173008 54 308 11.0 20.0 0.00 0.05 0.05 45 1007.0
20260509171505 53 339 8.0 20.0 0.00 0.05 0.05 42 1006.9
20260509170005 53 360 15.0 22.0 0.00 0.05 0.05 45 1006.7
20260509164503 52 360 10.0 14.0 0.00 0.05 0.05 46 1006.7
20260509163001 52 355 11.0 18.0 0.00 0.05 0.05 47 1006.7